Temperature
22 21 21 21 22 24 27 29 29 29 29 28 28 28 26 25 24 22 21 21 20 20 20 20 20 19 19 19 19 19 19 19 19 19 19 19 19 19 19 19 19 18 18 18 18 18 18 18 18
22 21 21 22 24 26 27 29 29 29 29 28 28 27 26 24 23 22 21 21 20 20 20 20 20 19 19 19 19 19 19 19 19 19 19 19 19 19 18 18 18 18 18 18 18 18 18 18 18
22 22 23 24 27 27 28 29 29 29 29 29 28 26 25 24 23 22 21 21 20 20 20 20 20 19 19 19 19 19 19 19 19 19 19 19 19 19 19 18 18 18 18 18 18 18 18 18 18
22 23 24 26 28 29 30 30 30 30 29 28 27 26 24 23 23 22 21 21 20 20 20 20 20 20 19 19 19 19 19 19 19 19 19 19 19 19 19 18 18 18 18 18 18 18 18 18 18
23 25 26 28 29 30 31 30 30 30 29 28 26 25 23 23 22 22 21 21 21 20 20 20 20 20 19 19 19 19 19 19 19 19 19 19 19 19 19 19 19 18 18 18 18 18 19 19 19
25 26 27 28 29 30 31 30 30 29 29 28 26 25 23 22 22 22 22 21 21 20 20 20 20 20 20 19 19 19 19 19 19 19 19 19 19 19 19 19 19 19 19 19 18 19 19 19 19
26 27 28 30 30 30 31 31 30 29 29 28 27 25 23 23 22 22 22 21 21 20 20 20 20 20 20 19 19 19 19 19 19 19 19 19 19 19 19 19 19 19 19 19 19 19 19 19 19
28 29 29 30 30 30 31 30 30 29 29 28 28 26 24 23 23 22 22 22 21 21 20 20 20 20 20 19 19 19 19 19 19 19 19 19 19 19 19 19 19 19 19 19 19 19 19 19 19
29 29 29 30 31 31 31 30 29 29 28 28 27 26 24 23 23 23 22 22 21 21 20 20 20 20 20 19 19 19 19 19 19 19 19 19 19 19 19 19 19 19 19 19 19 19 19 19 19
30 29 30 32 32 31 31 30 30 29 28 27 26 25 24 23 23 23 22 22 22 21 21 21 20 20 20 19 19 19 19 19 19 19 19 19 19 19 19 19 19 19 19 19 19 19 19 19 19
32 31 32 32 32 32 31 31 30 30 29 28 26 25 24 24 23 23 23 22 22 22 21 21 20 20 20 20 20 19 19 19 19 19 19 19 19 19 19 19 19 19 19 19 19 19 19 19 19
32 33 33 32 32 32 31 31 30 30 29 28 26 25 25 24 24 24 23 23 22 22 21 21 20 20 20 20 20 20 19 19 19 19 19 19 19 19 19 19 19 19 19 19 19 19 19 19 19
32 33 33 32 32 32 31 31 30 29 28 27 26 26 25 25 24 24 23 23 22 22 21 21 21 20 20 20 20 20 20 20 19 19 19 19 19 19 19 19 19 19 19 19 19 19 19 19 19
33 33 32 32 32 31 31 31 30 29 28 28 27 26 26 25 25 24 23 22 22 22 21 21 20 20 20 20 20 20 20 20 20 19 19 19 19 19 19 19 19 19 19 19 19 19 19 19 19
32 32 32 32 32 31 31 30 30 29 29 28 27 26 26 25 25 24 23 23 22 22 21 21 21 20 20 20 20 20 20 20 20 20 19 19 19 19 19 19 19 19 19 19 19 19 19 19 19
32 31 30 32 32 32 31 29 30 30 29 28 27 27 26 25 25 24 24 23 22 22 21 21 21 20 20 20 20 20 20 20 20 20 20 19 19 19 19 19 19 19 19 19 19 19 19 19 19
31 30 30 31 33 33 32 30 31 30 29 29 28 27 26 25 25 24 24 23 22 22 21 21 21 20 20 20 20 20 20 20 20 20 20 19 19 19 19 19 19 19 19 19 19 19 19 19 19
30 31 31 31 33 32 32 31 31 31 30 29 28 27 27 26 25 25 24 23 22 22 21 21 21 20 20 20 20 20 20 20 20 20 20 19 19 19 19 19 19 19 19 19 19 19 19 19 19
32 32 32 32 33 32 32 31 31 31 31 30 29 28 27 27 26 25 24 23 22 22 21 21 21 20 20 20 20 20 20 20 20 20 20 19 19 19 19 19 19 19 19 19 19 19 19 19 20
33 32 32 33 34 33 32 32 32 32 31 31 30 29 28 27 26 25 25 24 23 22 21 21 21 21 20 20 20 20 20 20 20 20 20 19 19 19 19 19 19 19 19 19 19 19 19 19 20
33 33 32 32 33 32 32 31 31 32 31 31 30 30 29 28 27 26 25 24 23 23 22 21 21 21 21 20 20 20 20 20 20 20 20 19 19 19 19 19 19 19 19 19 19 19 19 19 19
33 34 33 33 32 31 31 29 30 31 31 31 31 30 29 29 27 26 25 25 24 23 22 22 21 21 21 20 20 20 20 20 20 20 20 20 19 19 19 19 19 19 19 19 19 19 19 19 19
33 34 34 33 32 31 31 29 30 31 30 31 31 31 30 29 28 27 26 25 25 24 23 22 21 21 20 20 20 20 20 20 20 20 20 20 19 19 19 19 19 19 19 19 19 19 19 19 19
34 33 33 32 31 30 31 30 29 30 31 31 31 31 30 29 28 27 26 26 25 24 23 22 21 21 21 20 20 20 20 20 20 20 20 20 19 19 19 19 19 19 19 19 19 19 19 19 19
34 31 30 29 29 30 31 31 30 32 33 32 31 30 30 29 28 27 26 26 25 24 24 23 22 21 21 21 20 20 20 20 20 20 19 19 19 19 19 19 19 19 19 19 19 19 19 19 19
33 32 29 28 28 30 31 30 31 33 33 32 31 30 30 29 28 27 26 25 25 24 24 23 22 21 21 21 20 20 20 20 20 20 19 19 19 19 19 19 19 19 19 18 18 18 18 18 18
33 33 33 31 30 29 30 30 31 33 32 32 31 31 30 29 28 27 27 26 25 24 24 23 22 21 21 20 20 20 20 20 19 19 19 19 19 19 19 19 19 19 18 18 18 18 18 18 18
34 33 33 31 28 28 29 29 30 31 31 32 31 31 30 29 28 27 26 26 25 24 24 23 22 21 21 20 20 20 20 20 19 19 19 19 19 19 19 19 18 18 18 18 18 18 18 18 18
33 33 32 31 30 28 27 27 31 31 32 32 31 31 30 29 28 27 26 25 25 24 24 23 22 21 21 20 20 20 20 19 19 19 19 19 19 19 18 18 18 18 18 18 18 18 18 18 18
34 33 32 31 30 30 28 28 31 31 32 32 31 30 30 29 28 27 26 25 24 24 24 23 22 21 21 20 20 20 19 19 19 19 19 19 18 18 18 18 18 18 18 18 18 18 17 18 18
Wind_Speed
10 11 9 4 4 3 6 11 12 12 12 12 12 12 14 14 10 8 7 10 13 13 13 13 12 13 13 13 12 12 12 11 11 11 11 11 11 11 11 11 10 10 9 9 9 8 9 8 7
9 9 6 4 3 3 8 11 13 12 10 9 12 14 15 14 12 9 8 10 12 13 13 13 13 13 13 13 13 12 12 12 12 12 11 10 10 10 10 10 10 9 9 8 8 8 8 7 6
10 9 4 3 3 8 9 11 11 11 10 9 11 13 11 9 10 7 9 11 12 13 14 14 13 13 13 13 13 13 13 13 12 12 11 10 10 9 9 9 9 8 8 8 8 7 7 5 4
6 5 4 1 7 11 11 10 9 10 11 11 11 10 10 10 8 10 11 12 13 13 14 14 13 13 13 13 13 13 13 12 12 12 11 11 10 9 9 9 8 8 8 7 7 7 5 4 4
7 4 2 4 10 11 10 10 11 11 11 13 15 14 12 12 13 13 12 12 13 13 14 15 14 14 13 13 12 12 12 12 11 11 11 10 10 9 9 8 7 7 7 6 6 5 4 4 3
5 3 1 5 10 11 11 11 12 12 12 13 13 13 10 10 11 12 12 11 12 13 14 15 14 14 13 12 12 12 11 11 11 10 10 10 9 8 8 8 7 7 6 5 5 4 4 4 4
6 4 2 6 9 10 10 11 12 11 11 10 11 12 10 10 10 11 11 12 12 12 13 13 13 13 13 12 11 10 11 10 10 9 9 9 9 8 8 8 7 6 5 5 4 3 3 4 5
5 3 4 6 9 10 10 11 12 11 11 9 8 10 10 12 11 11 11 10 11 10 11 11 12 12 12 12 11 10 10 9 9 8 8 8 8 8 8 8 7 6 6 5 4 4 4 5 6
5 2 4 7 9 9 9 11 11 10 12 13 14 14 15 15 12 12 10 10 10 10 9 9 9 10 10 11 11 11 9 9 9 8 8 8 7 8 8 7 8 7 6 6 5 5 5 6 7
2 3 6 7 8 8 9 9 9 8 11 13 14 15 15 14 11 10 10 9 9 9 9 9 9 8 8 8 9 8 8 8 7 6 7 7 5 6 6 9 9 8 8 7 7 7 6 7 5
1 3 5 7 8 8 8 8 8 9 10 11 13 15 14 13 10 10 10 9 8 8 8 9 8 6 6 5 5 4 5 6 6 5 4 4 4 4 5 6 7 8 8 7 7 7 6 5 5
1 4 5 6 7 7 7 8 9 10 11 12 14 14 12 11 9 9 10 9 9 7 8 9 8 6 5 4 3 4 3 3 3 5 4 3 1 1 2 2 4 5 5 4 3 3 4 5 3
0 2 4 5 6 7 7 8 9 11 12 13 14 13 12 11 10 9 9 9 8 7 8 8 8 6 5 3 1 3 2 3 3 3 3 3 2 1 1 0 1 2 3 3 2 2 1 0 1
0 2 3 3 5 6 7 7 8 11 12 12 12 11 10 10 9 9 9 8 8 7 7 8 8 7 5 3 1 1 2 2 2 3 4 3 2 1 0 1 1 1 1 1 1 1 1 1 1
1 1 1 3 4 6 5 5 6 10 12 10 11 10 10 9 9 9 9 8 8 7 7 6 8 7 5 4 3 2 2 3 2 3 3 1 2 1 1 1 2 1 2 2 1 1 1 1 1
3 3 3 4 5 7 4 4 7 11 12 10 10 11 10 9 9 9 9 8 8 7 6 4 5 7 5 3 1 1 1 2 2 3 4 2 1 1 1 1 0 1 2 1 1 1 0 1 0
4 4 4 4 4 5 4 5 9 10 11 11 11 10 10 10 9 9 10 9 8 7 7 5 4 5 5 4 3 1 1 1 1 1 2 3 2 2 1 1 0 2 1 0 1 2 1 1 1
5 4 4 4 4 5 4 6 9 9 10 11 11 11 11 11 10 10 9 10 8 8 7 6 5 4 4 3 2 1 1 1 1 2 2 2 1 1 0 1 1 1 1 1 2 1 2 1 2
8 4 3 4 5 5 5 6 8 9 9 10 11 11 11 11 11 11 10 10 10 8 7 6 6 5 3 2 3 2 2 2 2 2 3 2 1 1 1 1 0 1 0 1 1 1 2 2 1
9 4 3 4 4 3 4 4 6 8 8 9 12 12 11 12 11 11 11 11 10 9 8 7 6 6 5 3 2 2 2 2 2 1 3 2 2 1 1 1 1 0 1 1 1 1 2 2 1
6 4 4 4 3 2 3 4 3 6 6 7 9 11 11 12 13 13 12 11 11 10 10 8 7 6 5 4 2 2 1 2 1 2 2 2 2 2 0 1 1 1 2 1 1 1 2 2 2
5 5 6 7 6 5 6 2 5 7 8 8 9 10 10 11 12 12 12 11 11 10 10 8 8 6 5 4 3 3 2 2 2 1 2 2 2 1 1 1 1 1 1 0 2 1 2 2 3
6 6 7 7 6 6 5 3 3 7 8 7 8 8 10 10 10 11 11 11 10 10 10 9 8 7 6 4 4 3 2 2 1 1 2 2 2 2 1 1 1 1 0 1 1 1 2 2 3
6 6 8 8 7 7 6 4 4 5 9 9 7 6 7 9 10 9 9 10 9 10 11 11 9 7 6 5 4 3 3 2 1 1 2 2 2 3 2 2 1 1 1 1 1 1 1 2 3
8 6 4 5 6 6 5 4 5 6 9 10 10 8 7 7 8 9 8 8 8 9 10 10 10 8 7 6 4 3 3 3 3 2 3 2 2 2 2 2 1 1 1 2 1 1 1 1 2
10 9 5 5 6 5 5 3 5 7 8 10 11 10 8 9 9 9 9 9 9 8 8 9 10 8 7 5 4 3 4 3 3 3 2 2 2 1 2 3 2 2 2 2 2 2 2 1 2
10 10 9 7 8 6 3 6 8 8 9 9 10 10 9 8 8 9 8 8 9 8 8 9 9 7 6 5 4 4 4 3 2 2 2 2 2 2 2 3 3 2 2 2 2 1 1 1 2
10 9 6 5 4 5 4 3 5 9 8 8 9 8 8 8 8 9 7 6 7 8 8 8 8 7 5 4 4 4 3 3 2 2 1 1 2 1 1 2 2 3 3 2 3 2 2 3 2
10 9 7 5 5 4 4 3 3 6 8 9 8 8 7 7 8 9 7 6 5 6 8 7 7 7 5 4 3 2 3 3 3 2 2 2 2 2 2 2 2 3 3 3 3 3 2 3 2
10 9 9 6 5 4 3 3 2 4 5 8 8 8 7 7 8 8 8 7 5 4 5 6 6 6 5 4 3 2 2 2 2 3 2 2 2 2 3 3 3 3 3 3 3 4 3 3 3
Wind_Direction
192 208 217 238 250 249 40 54 52 55 61 58 50 60 62 54 60 84 99 92 97 100 105 102 96 102 109 112 112 113 114 113 111 111 110 112 114 113 112 112 113 112 112 109 107 109 111 113 118
216 220 231 245 262 50 51 57 58 58 68 75 68 66 69 64 72 92 99 98 102 104 103 100 102 103 108 112 113 112 113 113 115 118 118 116 113 112 112 111 111 110 113 114 114 112 115 121 126
240 239 252 250 23 52 53 56 67 72 69 72 75 64 61 70 76 92 110 112 103 100 101 103 105 106 110 112 114 114 113 114 118 121 122 122 117 117 118 116 114 113 113 113 114 117 123 128 133
236 236 241 286 51 57 61 65 69 75 72 68 77 76 68 63 86 107 116 111 107 108 105 106 108 108 110 112 114 113 113 114 117 121 121 122 123 124 126 126 124 122 121 122 124 125 130 139 149
243 263 268 43 67 62 60 68 71 71 71 75 81 87 83 80 99 112 111 107 108 107 110 112 111 111 110 114 115 116 116 117 119 121 122 123 122 127 131 133 133 133 129 130 132 133 142 160 177
265 263 5 62 65 64 64 69 73 74 79 85 95 96 93 104 106 111 109 105 106 111 113 116 118 116 114 114 115 118 122 122 123 125 127 127 127 131 137 139 138 137 136 139 140 144 157 178 204
259 294 37 75 75 66 66 70 75 77 77 80 99 101 111 118 116 116 111 108 108 113 118 125 125 125 123 121 122 125 128 130 131 133 135 138 139 137 138 140 141 142 144 151 154 158 180 203 221
262 313 34 64 72 71 73 72 74 77 77 78 89 107 123 130 130 119 114 112 110 112 118 126 131 132 134 134 134 134 138 142 142 144 149 153 153 153 153 153 152 158 162 169 171 178 199 217 230
271 301 45 59 68 76 81 88 82 82 84 76 75 95 121 131 130 124 121 116 112 116 121 125 129 133 136 136 137 143 146 153 157 166 173 173 176 169 170 156 160 168 174 185 193 205 213 230 237
203 44 52 60 75 82 83 92 103 99 93 94 95 103 121 130 131 129 128 125 122 124 129 129 127 127 130 126 137 151 150 156 173 163 164 179 173 160 150 150 168 177 186 200 211 220 223 230 232
92 78 70 65 75 86 88 94 95 96 95 106 116 123 129 134 138 137 132 128 125 128 120 117 114 120 119 122 140 141 142 152 167 147 157 157 145 155 146 158 171 187 196 205 201 212 223 224 224
65 65 71 76 82 89 85 89 91 89 97 109 117 126 131 136 135 133 126 125 126 129 123 115 115 113 109 112 126 146 144 148 157 155 166 137 124 142 150 172 183 188 193 196 194 203 207 223 209
155 95 86 91 99 95 95 95 97 99 106 111 120 127 133 131 131 126 118 121 126 128 121 117 116 109 104 101 142 130 141 145 143 141 142 138 142 153 113 196 208 207 186 188 201 224 204 245 210
147 84 91 107 118 107 104 100 106 114 119 122 126 130 130 128 130 128 128 128 129 127 126 125 124 123 128 132 140 157 154 139 150 137 129 141 132 114 200 237 250 242 211 188 212 220 168 264 209
191 117 228 180 143 122 104 99 118 129 129 133 135 133 130 130 131 135 133 136 136 133 126 132 140 136 143 153 183 171 173 148 134 123 123 135 134 160 207 230 223 223 230 201 207 243 159 228 221
224 216 220 201 177 146 141 122 141 143 140 142 144 140 141 140 143 142 139 139 138 139 135 145 145 136 143 151 172 172 123 109 133 142 136 151 150 174 212 216 226 218 226 221 192 221 288 300 337
243 213 203 205 183 154 151 138 149 152 150 149 151 149 152 151 152 150 150 149 143 138 138 142 130 137 149 160 161 182 145 130 144 126 128 141 193 188 206 168 71 268 264 270 18 67 332 324 327
240 221 191 194 163 146 150 144 153 161 160 158 156 156 159 160 160 158 157 151 146 143 142 146 146 143 154 160 155 190 196 178 183 145 123 133 209 185 199 203 168 291 348 30 52 355 296 270 273
248 239 199 177 170 159 162 162 164 170 168 159 160 162 166 165 162 160 161 157 155 151 151 158 161 155 169 172 182 197 191 197 192 164 136 152 207 201 208 343 165 266 57 39 341 313 279 262 227
250 238 210 188 186 176 170 172 171 170 170 167 168 169 168 164 163 163 167 167 164 163 162 159 165 168 177 182 187 192 200 212 200 136 137 169 192 229 195 176 267 203 155 225 294 312 311 301 286
252 233 232 234 206 216 215 172 169 173 158 168 170 167 169 169 169 169 174 175 171 169 168 172 170 173 175 180 183 199 193 228 191 152 161 179 186 188 287 176 275 285 250 178 223 279 264 291 296
252 240 230 229 226 221 217 203 192 176 166 178 172 166 169 170 168 171 174 177 175 171 167 158 160 165 166 184 190 199 202 209 205 191 161 175 184 178 170 200 272 302 337 43 241 216 278 279 292
262 259 251 249 249 256 212 211 219 163 167 173 166 165 166 167 164 169 171 173 173 171 164 157 157 161 166 183 181 208 227 213 211 177 156 164 169 185 197 186 235 248 302 340 352 4 307 315 311
263 266 261 256 253 247 226 196 211 181 164 152 144 147 150 154 153 157 163 165 170 169 162 159 156 160 169 182 191 197 216 212 227 213 172 188 188 181 192 195 210 202 239 278 275 281 288 295 305
248 252 259 258 249 241 232 197 177 157 144 142 140 140 141 144 147 150 156 159 162 166 162 156 151 158 169 178 196 191 206 213 220 233 221 216 216 186 193 192 179 222 228 243 241 242 271 294 291
236 239 230 253 253 249 222 188 148 129 127 132 136 139 145 148 146 144 149 154 157 158 154 146 148 160 171 181 190 191 201 221 223 224 235 217 238 216 175 178 193 219 245 257 248 237 240 237 267
241 243 240 248 265 266 210 158 150 148 141 136 135 139 141 136 135 134 139 146 149 148 144 144 143 153 169 184 185 194 206 224 231 219 226 244 232 220 187 189 196 202 234 258 273 247 275 261 260
247 261 257 250 255 264 272 204 170 150 148 145 142 141 135 134 134 129 130 136 143 150 147 142 141 150 161 177 200 200 199 203 212 237 232 248 284 306 201 205 202 200 213 226 240 243 237 233 235
226 244 251 256 252 247 260 262 169 154 153 154 147 137 133 129 127 128 128 131 125 139 144 144 141 149 158 169 178 181 185 197 194 216 227 228 241 241 244 242 246 226 221 229 236 246 248 243 250
243 241 245 247 251 244 236 216 202 165 152 141 130 122 123 120 118 125 127 121 118 124 139 144 147 157 165 167 158 165 165 183 206 221 224 229 229 230 227 228 233 241 237 237 240 253 253 255 249
Height
1486 1486 1488 1491 1489 1487 1480 1470 1465 1466 1468 1471 1472 1472 1477 1481 1486 1498 1499 1497 1497 1496 1496 1496 1496 1496 1497 1500 1501 1503 1504 1506 1508 1509 1510 1512 1513 1515 1516 1517 1518 1519 1520 1521 1522 1523 1524 1524 1525
1487 1489 1491 1490 1488 1489 1482 1469 1469 1470 1471 1472 1474 1477 1480 1486 1491 1495 1498 1499 1499 1498 1498 1498 1499 1499 1501 1502 1503 1505 1506 1507 1509 1511 1512 1513 1515 1516 1517 1518 1520 1520 1521 1522 1523 1524 1525 1525 1526
1487 1489 1490 1485 1480 1482 1480 1470 1469 1471 1472 1473 1477 1481 1486 1491 1495 1497 1499 1500 1501 1501 1500 1501 1501 1502 1503 1504 1505 1507 1508 1509 1511 1512 1514 1515 1516 1517 1519 1520 1521 1521 1522 1523 1524 1524 1525 1526 1527
1489 1489 1487 1482 1480 1472 1470 1470 1469 1471 1474 1476 1478 1485 1492 1495 1497 1499 1500 1502 1502 1503 1503 1503 1504 1504 1505 1506 1507 1508 1510 1511 1512 1514 1515 1516 1518 1519 1520 1521 1522 1522 1523 1524 1524 1525 1526 1526 1527
1490 1487 1483 1481 1475 1470 1468 1470 1471 1474 1476 1479 1483 1490 1496 1499 1500 1501 1502 1503 1504 1505 1505 1505 1506 1507 1508 1509 1510 1511 1512 1513 1515 1516 1517 1518 1519 1520 1521 1522 1523 1523 1524 1524 1525 1526 1526 1527 1527
1488 1483 1486 1486 1476 1471 1470 1471 1473 1476 1479 1482 1486 1491 1499 1502 1502 1503 1504 1505 1506 1507 1507 1508 1509 1509 1510 1511 1512 1513 1514 1515 1516 1518 1519 1520 1520 1521 1522 1523 1524 1524 1525 1525 1526 1526 1527 1527 1527
1486 1482 1481 1477 1477 1475 1473 1473 1476 1479 1481 1483 1486 1491 1499 1502 1504 1505 1506 1507 1508 1509 1510 1510 1511 1511 1512 1513 1514 1515 1516 1517 1519 1519 1520 1521 1522 1523 1523 1524 1525 1526 1526 1527 1527 1527 1527 1526 1526
1482 1480 1478 1475 1476 1478 1475 1476 1479 1481 1484 1486 1487 1492 1499 1503 1504 1505 1507 1509 1510 1511 1512 1512 1513 1514 1515 1516 1517 1518 1518 1519 1520 1521 1522 1523 1524 1524 1525 1526 1526 1527 1527 1527 1527 1527 1527 1526 1525
1479 1482 1481 1476 1476 1476 1475 1478 1481 1483 1486 1488 1490 1493 1499 1503 1505 1507 1509 1511 1512 1513 1514 1515 1515 1516 1517 1518 1519 1519 1520 1521 1522 1523 1524 1524 1525 1526 1526 1527 1528 1528 1528 1528 1528 1528 1527 1526 1525
1476 1481 1477 1472 1471 1474 1476 1478 1481 1484 1487 1491 1494 1498 1501 1504 1507 1508 1510 1512 1513 1514 1515 1516 1517 1518 1519 1520 1520 1521 1522 1522 1523 1524 1525 1525 1527 1527 1528 1528 1528 1529 1529 1529 1529 1528 1528 1526 1526
1473 1476 1472 1472 1473 1475 1477 1479 1481 1484 1488 1492 1495 1500 1503 1505 1507 1509 1511 1512 1514 1515 1517 1518 1518 1519 1520 1521 1522 1523 1524 1524 1525 1525 1526 1527 1528 1528 1529 1529 1529 1529 1529 1529 1529 1529 1528 1528 1527
1473 1472 1472 1473 1475 1476 1477 1479 1482 1485 1490 1493 1497 1500 1503 1506 1508 1510 1512 1513 1515 1516 1518 1518 1519 1520 1521 1522 1523 1524 1525 1526 1526 1527 1528 1528 1528 1529 1529 1529 1529 1530 1530 1530 1530 1530 1529 1529 1530
1473 1473 1473 1475 1475 1477 1479 1481 1484 1488 1492 1495 1498 1501 1504 1506 1508 1511 1512 1514 1516 1517 1518 1519 1520 1521 1522 1523 1524 1525 1526 1527 1527 1528 1528 1528 1529 1529 1530 1530 1530 1530 1530 1530 1530 1530 1530 1530 1530
1472 1473 1474 1475 1476 1478 1479 1481 1485 1490 1493 1496 1499 1502 1504 1507 1509 1511 1513 1515 1516 1517 1519 1519 1520 1521 1522 1523 1524 1525 1526 1527 1528 1528 1529 1529 1529 1529 1530 1530 1530 1531 1531 1531 1531 1531 1531 1531 1531
1473 1475 1477 1475 1475 1478 1481 1485 1486 1489 1492 1496 1499 1502 1505 1507 1510 1512 1513 1515 1516 1518 1519 1520 1520 1521 1522 1524 1525 1526 1527 1527 1528 1528 1529 1529 1529 1529 1530 1530 1530 1530 1530 1530 1530 1531 1531 1531 1531
1475 1480 1485 1475 1473 1476 1482 1492 1485 1488 1491 1495 1498 1501 1504 1507 1509 1512 1514 1515 1516 1517 1518 1520 1521 1521 1522 1523 1525 1526 1527 1528 1528 1529 1529 1529 1529 1529 1529 1529 1530 1530 1530 1530 1531 1531 1531 1531 1531
1479 1486 1486 1478 1471 1472 1478 1486 1484 1486 1489 1493 1497 1500 1503 1506 1509 1511 1513 1515 1516 1517 1518 1519 1521 1522 1522 1523 1524 1525 1526 1527 1528 1528 1529 1529 1529 1529 1529 1529 1529 1530 1530 1530 1531 1530 1530 1531 1530
1486 1482 1481 1479 1471 1472 1477 1481 1480 1483 1486 1490 1494 1498 1502 1505 1508 1510 1513 1514 1516 1517 1518 1519 1520 1521 1522 1523 1524 1525 1526 1527 1527 1528 1528 1528 1528 1529 1529 1529 1529 1529 1530 1530 1530 1530 1530 1530 1530
1472 1475 1478 1474 1466 1471 1476 1478 1478 1480 1483 1486 1491 1496 1499 1503 1506 1509 1511 1513 1515 1516 1517 1518 1519 1521 1522 1523 1524 1525 1525 1526 1527 1527 1528 1528 1528 1528 1529 1528 1529 1529 1529 1529 1529 1529 1530 1530 1530
1468 1473 1475 1470 1465 1469 1475 1476 1474 1477 1480 1483 1487 1492 1496 1500 1504 1507 1510 1512 1513 1515 1516 1517 1518 1520 1521 1522 1523 1524 1525 1526 1527 1527 1527 1527 1527 1528 1528 1528 1528 1529 1529 1529 1529 1529 1529 1529 1530
1467 1471 1473 1473 1468 1469 1474 1482 1479 1475 1478 1481 1484 1488 1492 1496 1500 1504 1507 1510 1511 1513 1514 1516 1517 1519 1520 1521 1522 1524 1525 1525 1526 1526 1526 1526 1527 1527 1527 1527 1528 1528 1528 1528 1528 1528 1528 1528 1529
1472 1463 1464 1468 1474 1480 1477 1499 1484 1476 1478 1479 1482 1485 1489 1493 1497 1501 1504 1507 1509 1511 1513 1514 1516 1518 1519 1520 1522 1522 1523 1524 1525 1525 1525 1525 1526 1526 1526 1527 1527 1527 1527 1527 1527 1527 1528 1528 1528
1464 1459 1462 1465 1472 1479 1478 1494 1489 1476 1480 1478 1479 1483 1486 1490 1495 1498 1501 1504 1507 1509 1511 1513 1514 1516 1517 1519 1520 1521 1522 1523 1524 1524 1524 1525 1525 1525 1525 1526 1526 1526 1526 1526 1526 1526 1526 1527 1527
1458 1462 1464 1466 1474 1492 1481 1490 1496 1477 1476 1475 1478 1482 1485 1489 1493 1497 1500 1503 1505 1508 1510 1511 1513 1514 1516 1517 1519 1519 1520 1521 1522 1523 1523 1523 1524 1524 1524 1524 1524 1524 1524 1525 1525 1525 1525 1525 1525
1460 1475 1492 1498 1499 1494 1474 1481 1486 1469 1466 1471 1477 1482 1485 1488 1492 1495 1499 1501 1504 1506 1508 1510 1511 1513 1514 1516 1517 1518 1519 1520 1520 1521 1522 1522 1522 1522 1523 1523 1523 1523 1523 1524 1524 1524 1524 1524 1524
1462 1470 1495 1511 1507 1491 1476 1483 1474 1463 1466 1471 1476 1480 1484 1488 1491 1494 1497 1500 1502 1504 1506 1508 1509 1511 1513 1514 1515 1516 1517 1518 1519 1519 1520 1520 1521 1521 1521 1521 1522 1522 1522 1522 1522 1522 1522 1522 1522
1461 1464 1461 1479 1485 1492 1484 1476 1469 1463 1466 1470 1474 1479 1483 1486 1489 1493 1496 1499 1501 1502 1505 1506 1507 1509 1511 1512 1513 1514 1515 1516 1517 1518 1518 1518 1519 1519 1519 1520 1520 1520 1520 1520 1520 1521 1520 1520 1520
1452 1454 1463 1478 1500 1506 1495 1487 1480 1470 1469 1469 1473 1477 1481 1485 1489 1492 1495 1498 1500 1502 1503 1505 1506 1508 1509 1511 1512 1513 1513 1514 1515 1515 1516 1516 1516 1517 1517 1517 1517 1517 1518 1518 1518 1518 1519 1519 1519
1456 1459 1462 1468 1476 1499 1510 1501 1467 1467 1467 1469 1472 1477 1481 1484 1488 1491 1495 1498 1499 1501 1502 1504 1505 1507 1508 1509 1510 1511 1511 1512 1512 1512 1513 1513 1513 1514 1514 1515 1515 1515 1515 1516 1516 1516 1516 1516 1516
1449 1454 1459 1475 1481 1480 1493 1496 1464 1464 1465 1468 1472 1477 1481 1485 1488 1492 1494 1497 1499 1500 1502 1503 1505 1506 1506 1507 1508 1509 1509 1510 1510 1510 1510 1511 1511 1511 1511 1511 1512 1512 1513 1513 1513 1514 1514 1514 1514